Wetbulb
16.68 18.22 20.32 21.29 26.30 25.99 25.80 26.05 25.98 26.87 26.82 27.01 27.67 28.15 27.73 27.57 28.13 27.78 27.61 26.33 27.21 28.41 29.11 28.59 28.23 30.19 31.32 32.65 33.45 33.90 34.27 35.00 32.97 36.32 32.69 30.92 31.15 30.59 32.34 32.44 32.60 33.05 34.70
13.88 17.46 19.33 22.26 25.96 24.98 25.07 25.50 26.56 26.16 27.06 27.07 27.45 27.68 27.93 27.93 26.96 24.78 25.08 26.77 26.93 26.13 26.86 27.81 28.20 29.97 29.93 31.97 32.16 32.14 32.54 34.53 34.73 33.79 32.87 29.89 29.18 29.14 28.45 29.52 29.26 30.78 32.09
12.70 15.14 17.27 17.14 16.97 24.16 24.76 25.41 26.11 26.20 26.61 27.18 28.12 27.40 27.44 26.62 27.24 27.41 26.64 26.69 25.47 25.76 26.62 27.36 27.00 27.36 26.74 28.73 30.24 31.23 31.83 31.88 34.24 34.48 33.50 28.57 27.77 27.60 27.72 27.61 27.77 28.34 29.55
12.45 13.44 15.45 14.97 16.15 24.52 25.01 25.22 25.83 26.53 26.59 27.08 27.50 27.36 27.41 27.61 29.10 28.94 28.29 18.18 18.97 19.69 24.76 27.00 26.71 26.41 26.18 27.95 29.93 30.38 31.21 31.49 32.02 32.44 31.66 31.05 29.02 27.22 26.38 26.52 26.70 26.56 27.52
9.19 11.86 13.99 13.18 12.86 19.48 24.02 24.95 25.88 26.65 27.00 27.27 22.69 19.36 21.76 19.63 22.36 21.61 20.39 15.47 16.82 17.59 19.40 24.57 26.96 27.30 27.84 29.11 29.43 28.23 29.88 30.24 31.22 30.64 29.19 27.89 27.01 25.33 25.36 26.97 26.21 25.84 25.35
10.27 12.51 10.91 8.32 11.63 14.95 16.22 16.68 15.96 17.10 15.89 14.72 15.48 15.15 16.33 21.59 28.05 30.14 25.08 14.68 14.30 18.48 19.22 20.21 25.53 27.19 27.25 27.94 30.46 31.01 30.34 28.75 29.39 29.36 28.80 27.91 27.56 27.37 27.21 25.99 24.85 24.02 25.54
14.41 15.13 16.10 15.95 17.71 18.29 19.34 18.73 17.23 14.56 14.49 15.13 15.22 15.31 17.03 16.07 27.99 29.94 29.25 18.83 16.29 16.65 19.21 22.52 23.94 25.52 24.98 26.28 27.03 28.73 28.47 30.91 30.21 27.81 27.95 27.98 26.66 27.03 26.44 24.82 24.03 24.36 23.88
16.87 18.18 19.27 19.00 19.73 20.34 20.24 18.97 17.49 16.78 17.90 18.75 19.69 20.66 21.32 23.26 27.91 29.17 29.59 23.77 22.17 22.12 22.03 22.09 20.95 22.35 23.33 26.06 25.70 25.35 25.10 25.03 27.21 27.36 26.24 25.64 26.09 26.41 26.60 26.19 24.81 21.27 20.80
19.34 19.39 19.80 20.65 20.35 20.39 20.12 19.27 18.19 18.51 19.40 19.69 21.89 21.39 21.15 22.51 26.94 28.02 28.27 24.34 23.18 22.87 23.45 23.23 23.68 24.10 27.90 29.22 23.82 23.71 23.40 22.49 25.12 27.56 29.09 29.61 30.35 29.78 27.05 24.71 22.54 23.60 22.31
21.55 22.39 22.07 21.82 21.35 20.37 20.56 19.93 20.43 20.75 22.03 21.98 22.27 21.49 21.72 21.52 25.67 27.48 27.34 25.50 22.24 20.89 21.79 23.41 25.42 25.23 28.11 29.34 23.84 21.57 20.21 20.83 21.32 19.42 20.25 21.74 22.47 22.61 25.05 23.82 23.99 21.41 20.92
22.25 22.86 23.00 22.43 21.18 21.40 20.77 20.17 19.74 18.90 19.82 17.72 18.70 19.23 19.17 20.66 21.92 27.01 28.21 25.37 24.04 21.81 21.74 20.95 21.25 25.80 27.10 27.56 28.02 21.80 21.57 21.75 18.90 17.05 18.11 16.78 17.07 18.04 18.75 19.79 19.51 20.64 18.46
21.04 20.80 20.70 19.80 21.28 21.62 18.09 17.82 16.32 16.09 15.07 14.83 13.43 16.14 18.48 19.85 23.00 26.15 28.39 28.57 27.71 23.24 22.40 21.54 21.40 27.04 28.50 28.97 26.85 27.41 28.05 23.24 13.64 12.83 11.98 14.60 14.41 13.83 14.22 15.94 16.40 15.76 16.58
16.76 17.23 17.12 17.61 20.12 19.75 16.20 16.92 15.64 13.74 14.99 15.62 15.71 15.92 17.28 18.53 19.38 26.23 28.77 28.98 28.64 24.36 21.61 23.08 27.05 28.09 27.71 25.47 26.41 27.13 21.99 15.99 14.42 13.19 13.25 12.18 12.51 12.70 11.77 10.62 10.34 9.44 9.53
14.11 15.59 17.39 15.78 17.32 15.76 19.50 20.16 17.83 16.46 15.59 16.23 15.62 15.63 16.50 16.61 17.11 16.42 18.23 18.39 22.60 22.42 23.07 17.69 20.94 25.56 27.12 25.51 16.96 20.23 17.39 16.35 15.61 14.33 12.89 13.80 11.08 9.41 9.54 9.68 8.60 7.97 5.83
14.53 15.00 16.15 18.01 16.36 18.05 18.74 19.45 19.09 20.07 19.58 17.64 16.95 16.76 12.70 15.55 17.94 22.80 21.63 14.88 14.68 19.51 18.37 11.88 10.18 11.32 13.97 13.40 15.83 15.46 15.46 13.02 12.68 12.42 10.59 10.45 12.15 11.60 12.41 10.76 7.80 3.08 6.00
13.09 13.80 14.08 15.95 17.35 18.83 19.08 19.33 24.18 26.04 26.80 26.83 27.08 24.26 21.31 24.07 27.03 28.16 28.23 28.16 28.10 28.31 23.46 20.08 19.43 15.05 15.92 16.68 16.37 17.61 12.97 14.66 14.18 13.06 11.73 11.25 11.85 11.09 11.56 10.88 12.00 11.02 10.21
11.67 12.77 13.64 15.04 16.27 16.71 18.12 18.34 18.41 21.94 26.17 27.18 27.78 28.48 29.14 28.87 28.88 28.93 28.78 28.82 29.30 29.17 24.08 24.22 21.37 21.59 21.05 17.89 15.99 16.10 16.80 18.08 13.05 11.31 11.43 11.62 11.39 11.11 11.64 12.39 11.80 10.69 11.87
11.44 12.35 13.76 14.94 14.49 15.82 17.25 16.83 16.58 17.35 17.22 19.59 22.93 24.88 26.10 27.04 27.00 26.45 26.59 26.62 20.12 19.06 13.64 16.10 18.13 19.76 18.52 17.89 16.72 16.33 16.14 14.10 11.81 12.35 10.67 9.63 7.89 8.63 7.66 7.25 8.79 8.45 9.39
11.40 13.57 14.36 12.02 11.93 13.07 12.60 12.69 9.75 10.34 11.71 14.76 16.01 20.21 19.18 22.27 22.36 22.69 23.03 18.08 15.36 15.26 15.20 14.76 15.87 15.92 15.83 15.26 15.28 15.45 14.94 14.82 15.22 14.71 15.29 15.51 15.94 14.67 14.89 15.17 15.36 15.50 14.35
12.31 14.13 9.90 8.68 8.25 7.52 7.97 7.71 8.00 8.51 8.33 8.66 9.50 10.91 12.57 13.79 14.40 15.86 17.00 16.42 15.93 15.49 15.42 14.98 15.32 15.58 15.35 15.03 14.81 14.84 14.99 15.38 15.53 15.58 15.21 14.91 14.52 14.28 12.36 10.91 9.66 9.26 6.14
10.61 10.43 7.17 4.78 5.92 3.98 3.78 4.46 4.75 4.13 4.42 4.40 4.82 7.71 20.85 7.90 7.96 10.11 11.94 11.76 13.27 14.14 14.19 14.56 14.75 14.89 15.23 15.31 15.03 14.48 14.19 13.94 13.45 12.12 10.23 8.14 6.67 6.92 2.48 1.94 0.04 -0.32 -2.79
5.42 2.15 -0.02 -0.20 1.41 3.17 2.16 1.47 1.30 0.70 0.86 1.49 1.39 3.89 16.12 4.13 5.16 6.34 6.89 9.60 11.21 11.70 12.97 12.13 11.57 11.20 9.98 10.19 9.09 7.79 5.26 3.99 2.89 1.97 2.02 0.60 -0.01 -1.62 -4.22 -5.69 -6.56 -7.28 -8.35
-3.38 -3.84 -3.28 -5.25 -5.13 -3.65 -3.03 -4.09 -5.18 -5.02 -5.53 -4.71 -4.91 -1.95 -2.82 -3.66 -2.08 -2.24 -1.38 -0.35 0.76 1.86 2.04 1.53 1.89 2.02 1.50 0.56 -0.37 0.24 -1.04 -1.08 -1.41 -3.34 -3.46 -5.24 -6.70 -7.90 -10.18 -8.86 -11.18 -11.40 -11.38
-9.04 -9.66 -10.18 -10.51 -10.78 -10.78 -11.31 -8.95 -8.88 -8.11 -8.23 -8.38 -9.03 -7.28 -5.84 -5.46 -4.83 -3.75 -2.64 -2.14 -1.99 -2.57 -7.01 -7.16 -6.21 -4.00 -6.59 -4.85 -7.81 -8.66 -8.34 -7.88 -10.02 -6.43 -6.99 -9.77 -11.22 -12.52 -13.77 -13.34 -12.00 -12.21 -12.45
-12.54 -12.54 -13.10 -13.67 -14.99 -13.76 -11.32 -10.01 -8.75 -10.57 -8.88 -8.09 -6.80 -9.79 -7.09 -6.47 -5.74 -5.19 -4.87 -4.70 -4.28 -4.10 -2.99 -4.12 -4.48 -5.32 -5.06 -4.74 -5.83 -10.70 -11.67 -1.65 -6.30 -10.60 -12.32 -9.53 -9.33 -12.87 -13.70 -12.83 -12.34 -13.67 -12.96
-12.21 -12.56 -13.94 -14.92 -13.31 -13.83 -12.91 -9.21 -7.93 -8.31 -7.43 -5.31 -5.43 -6.57 -6.43 -5.73 -4.47 -3.99 -3.64 -4.06 -4.05 -3.48 -4.21 -4.83 -6.05 -6.30 -6.39 -5.34 -5.21 -2.42 -2.73 2.71 -2.75 -3.66 -8.60 -11.29 -9.98 -11.71 -14.28 -10.13 -11.15 -10.82 -9.37
MSLP
1021.22 1020.96 1020.92 1020.77 1020.26 1020.07 1020.01 1019.88 1019.70 1019.53 1019.41 1019.22 1018.97 1018.69 1018.43 1018.14 1017.89 1017.64 1017.31 1016.94 1016.61 1016.11 1015.84 1015.56 1015.11 1014.64 1013.98 1013.42 1012.93 1012.39 1011.77 1011.35 1010.46 1009.30 1009.21 1008.90 1008.73 1008.65 1008.74 1008.13 1007.87 1007.26 1006.92
1021.06 1021.07 1020.78 1020.44 1020.12 1019.93 1019.75 1019.57 1019.39 1019.23 1019.04 1018.80 1018.53 1018.30 1018.02 1017.77 1017.39 1017.15 1016.81 1016.43 1016.13 1015.81 1015.44 1015.03 1014.49 1014.12 1013.58 1012.88 1012.20 1011.59 1011.16 1010.56 1009.94 1009.07 1008.62 1008.66 1008.50 1008.55 1008.74 1008.19 1008.11 1007.80 1007.32
1021.17 1020.81 1020.57 1020.43 1020.11 1019.75 1019.49 1019.34 1019.16 1018.96 1018.73 1018.56 1018.32 1018.07 1017.82 1017.52 1017.15 1016.74 1016.49 1016.17 1015.93 1015.60 1015.14 1014.70 1014.23 1013.81 1013.30 1012.61 1011.77 1011.07 1010.45 1009.85 1009.23 1008.71 1008.21 1008.48 1008.48 1008.61 1008.37 1007.93 1007.88 1007.69 1007.53
1020.82 1020.70 1020.57 1020.22 1019.82 1019.43 1019.31 1019.10 1018.92 1018.67 1018.45 1018.22 1018.09 1017.89 1017.61 1017.24 1016.85 1016.49 1016.24 1016.13 1015.85 1015.48 1014.93 1014.44 1014.07 1013.69 1013.19 1012.54 1011.65 1010.85 1010.16 1009.15 1008.53 1008.22 1008.00 1007.71 1008.16 1008.13 1008.53 1008.47 1007.91 1007.82 1007.73
1020.71 1020.56 1020.22 1019.71 1019.45 1019.19 1019.04 1018.79 1018.63 1018.44 1018.21 1018.12 1017.89 1017.68 1017.40 1017.00 1016.53 1016.09 1015.93 1015.89 1015.72 1015.36 1014.76 1014.24 1013.74 1013.46 1013.07 1012.43 1011.60 1010.77 1010.14 1009.45 1008.64 1008.06 1007.95 1008.14 1008.12 1008.28 1008.56 1008.24 1008.07 1008.23 1008.23
1020.24 1020.04 1019.80 1019.46 1019.10 1018.93 1018.75 1018.64 1018.43 1018.30 1018.10 1017.90 1017.65 1017.42 1017.16 1016.63 1016.18 1015.68 1015.47 1015.46 1015.29 1015.15 1014.85 1014.14 1013.61 1013.14 1012.73 1012.24 1011.66 1010.92 1010.41 1009.77 1009.06 1008.62 1008.33 1008.19 1007.83 1007.84 1007.89 1008.07 1008.21 1008.47 1008.50
1019.42 1019.21 1019.05 1018.85 1018.72 1018.47 1018.24 1018.19 1018.12 1018.08 1017.78 1017.58 1017.37 1017.05 1016.68 1016.07 1015.57 1015.16 1015.02 1014.89 1014.92 1014.74 1014.42 1013.99 1013.55 1013.14 1012.74 1012.22 1011.76 1011.40 1010.90 1010.24 1009.68 1009.07 1008.44 1008.13 1008.00 1007.96 1008.07 1008.30 1008.47 1008.46 1008.67
1018.54 1018.36 1018.16 1018.06 1017.96 1017.75 1017.75 1017.75 1017.61 1017.46 1017.41 1017.04 1016.76 1016.43 1016.02 1015.52 1015.12 1014.73 1014.52 1014.41 1014.24 1014.02 1013.84 1013.64 1013.44 1012.99 1012.53 1012.00 1011.83 1011.43 1010.94 1010.43 1009.88 1009.31 1009.05 1008.76 1008.53 1008.33 1008.27 1008.08 1008.03 1008.57 1009.03
1017.71 1017.47 1017.29 1017.27 1017.19 1017.12 1017.05 1017.01 1016.85 1016.86 1016.67 1016.37 1016.06 1015.83 1015.50 1014.99 1014.72 1014.40 1014.10 1013.92 1013.82 1013.56 1013.26 1013.09 1012.99 1012.71 1012.20 1011.70 1011.62 1011.36 1011.09 1010.81 1010.26 1009.64 1009.24 1009.08 1008.94 1008.85 1008.60 1008.34 1008.59 1008.67 1008.94
1016.86 1016.50 1016.31 1016.32 1016.33 1016.29 1016.12 1016.10 1016.01 1015.97 1015.69 1015.56 1015.26 1015.10 1014.89 1014.55 1014.20 1013.85 1013.63 1013.55 1013.42 1013.19 1012.95 1012.65 1012.45 1012.25 1011.95 1011.56 1011.43 1011.28 1011.01 1010.76 1010.56 1010.29 1009.85 1009.32 1009.09 1008.87 1008.60 1008.43 1008.49 1008.67 1008.89
1016.35 1015.99 1015.71 1015.54 1015.48 1015.34 1015.25 1015.27 1015.24 1015.26 1015.08 1014.94 1014.82 1014.56 1014.30 1013.98 1013.57 1013.31 1013.03 1012.88 1012.88 1012.76 1012.66 1012.43 1012.19 1011.96 1011.65 1011.44 1011.20 1011.29 1011.02 1010.80 1010.76 1010.70 1010.46 1010.04 1009.45 1009.06 1008.95 1008.92 1008.92 1008.97 1009.15
1016.24 1015.73 1015.27 1014.97 1014.72 1014.50 1014.63 1014.61 1014.72 1014.75 1014.65 1014.48 1014.39 1014.05 1013.54 1013.13 1012.92 1012.63 1012.42 1012.28 1012.25 1012.39 1012.21 1012.05 1011.88 1011.67 1011.31 1011.05 1010.91 1010.88 1010.73 1010.71 1010.85 1011.00 1010.83 1010.70 1010.60 1010.40 1009.84 1009.46 1009.51 1009.60 1009.77
1016.23 1015.55 1014.96 1014.50 1014.11 1013.94 1013.97 1013.87 1013.99 1014.00 1014.10 1013.94 1013.92 1013.58 1012.86 1012.39 1012.19 1012.00 1011.71 1011.60 1011.58 1011.61 1011.56 1011.41 1011.18 1010.99 1010.89 1010.82 1010.85 1010.67 1010.53 1010.78 1011.12 1011.16 1011.15 1010.83 1010.71 1010.42 1010.41 1010.42 1010.48 1010.38 1010.20
1016.23 1015.49 1014.78 1014.21 1013.77 1013.58 1013.33 1013.23 1013.24 1013.17 1013.19 1013.09 1013.02 1012.81 1012.33 1011.92 1011.62 1011.37 1011.36 1011.27 1011.22 1011.18 1011.10 1011.00 1010.93 1010.67 1010.50 1010.47 1010.40 1010.28 1010.41 1010.63 1010.90 1011.05 1011.09 1010.92 1010.58 1010.64 1010.82 1010.50 1010.97 1010.85 1010.80
1016.11 1015.38 1014.66 1014.08 1013.60 1013.16 1012.80 1012.52 1012.32 1011.98 1012.02 1011.81 1011.60 1011.73 1011.76 1011.23 1010.71 1010.52 1010.44 1010.75 1010.79 1010.83 1010.84 1011.01 1010.93 1010.76 1010.49 1010.42 1010.38 1010.30 1010.14 1010.27 1010.64 1010.80 1010.84 1010.86 1010.86 1010.84 1010.69 1010.34 1010.80 1010.93 1011.34
1016.34 1015.57 1014.96 1014.22 1013.54 1012.94 1012.38 1011.77 1011.37 1010.98 1010.81 1010.70 1010.51 1010.49 1010.32 1010.06 1009.82 1009.70 1009.64 1009.61 1009.62 1009.70 1009.80 1010.15 1010.25 1010.34 1010.38 1010.23 1010.12 1009.92 1009.82 1009.86 1009.93 1010.07 1010.21 1010.33 1010.41 1010.50 1010.55 1010.50 1010.50 1010.46 1010.84
1016.61 1015.67 1015.00 1014.27 1013.62 1012.94 1012.34 1011.82 1011.16 1010.50 1010.31 1010.07 1009.65 1009.34 1009.11 1008.98 1008.96 1008.93 1008.93 1008.92 1008.85 1008.87 1008.98 1009.17 1009.39 1009.40 1009.35 1009.49 1009.51 1009.46 1009.44 1009.42 1009.40 1009.62 1009.61 1009.71 1009.85 1010.00 1010.13 1010.20 1010.31 1010.48 1010.58
1016.53 1015.62 1015.04 1014.42 1013.76 1013.05 1012.45 1012.01 1011.60 1011.19 1010.73 1010.15 1009.88 1009.62 1009.17 1008.81 1008.72 1008.77 1008.69 1008.52 1008.60 1008.68 1009.04 1009.27 1009.28 1009.26 1009.27 1009.26 1009.31 1009.31 1009.30 1009.28 1009.44 1009.50 1009.51 1009.54 1009.54 1009.58 1009.72 1009.85 1009.76 1009.97 1009.97
1016.48 1015.69 1015.15 1014.49 1013.86 1013.38 1012.83 1012.45 1011.96 1011.58 1011.27 1010.60 1010.07 1009.72 1009.78 1009.50 1009.40 1009.37 1009.33 1009.23 1009.30 1009.34 1009.31 1009.33 1009.33 1009.29 1009.25 1009.26 1009.21 1009.19 1009.22 1009.23 1009.26 1009.31 1009.28 1009.23 1009.22 1009.23 1009.33 1009.40 1009.40 1009.40 1009.42
1016.62 1016.08 1015.54 1015.02 1014.49 1014.00 1013.58 1013.23 1012.86 1012.46 1012.07 1011.64 1011.11 1010.71 1010.34 1010.07 1009.91 1009.77 1009.58 1009.49 1009.48 1009.54 1009.55 1009.50 1009.38 1009.27 1009.21 1009.16 1009.11 1009.11 1009.11 1009.11 1009.11 1009.09 1009.17 1009.30 1009.40 1009.43 1009.51 1009.62 1009.70 1009.96 1010.14
1017.17 1016.76 1016.30 1015.78 1015.30 1014.86 1014.51 1014.21 1013.89 1013.52 1013.17 1012.69 1012.03 1011.22 1010.23 1010.71 1010.58 1010.46 1010.33 1010.14 1010.02 1009.98 1009.76 1009.56 1009.48 1009.45 1009.28 1009.10 1008.94 1008.97 1009.17 1009.25 1009.25 1009.27 1009.37 1009.53 1009.68 1009.83 1009.98 1010.07 1010.22 1010.34 1010.48
1017.62 1017.37 1016.95 1016.57 1016.12 1015.72 1015.41 1015.05 1014.72 1014.37 1014.00 1013.58 1012.94 1012.34 1011.48 1011.78 1011.51 1011.31 1011.07 1010.75 1010.48 1010.29 1010.12 1009.96 1009.80 1009.72 1009.66 1009.54 1009.49 1009.43 1009.68 1009.72 1009.72 1009.71 1009.92 1009.91 1010.15 1010.40 1010.45 1010.53 1010.60 1010.67 1010.74
1018.15 1017.96 1017.56 1017.24 1016.95 1016.63 1016.26 1015.89 1015.54 1015.16 1014.79 1014.31 1013.79 1013.25 1012.75 1012.42 1012.15 1011.85 1011.53 1010.85 1010.52 1010.31 1010.12 1009.99 1009.82 1009.74 1009.71 1009.71 1009.51 1009.54 1009.55 1009.66 1009.55 1009.65 1009.88 1010.24 1010.77 1010.83 1010.93 1010.97 1011.03 1011.11 1011.19
1018.53 1018.53 1018.17 1017.82 1017.48 1017.20 1016.90 1016.52 1016.05 1015.56 1015.12 1014.62 1014.10 1013.60 1013.14 1012.71 1012.31 1011.85 1011.22 1010.72 1010.35 1010.01 1009.77 1009.63 1009.53 1009.45 1009.40 1009.47 1009.17 1009.12 1009.12 1009.06 1009.19 1009.38 1009.59 1009.74 1010.38 1010.50 1011.09 1011.08 1011.10 1011.12 1011.16
1018.79 1018.75 1018.29 1017.99 1017.69 1017.43 1017.04 1016.58 1016.08 1015.56 1015.06 1014.57 1014.03 1013.54 1012.99 1012.57 1012.00 1011.33 1010.71 1010.23 1009.85 1009.52 1009.13 1008.91 1008.85 1008.81 1008.83 1008.82 1008.69 1008.64 1008.57 1008.47 1008.54 1008.70 1009.07 1009.37 1009.52 1009.91 1010.57 1010.84 1010.74 1010.73 1010.80
1018.81 1018.81 1018.30 1017.89 1017.48 1017.09 1016.73 1016.31 1015.75 1015.17 1014.61 1013.98 1013.44 1012.92 1012.50 1011.95 1011.30 1010.71 1010.12 1009.63 1009.23 1008.82 1008.52 1008.31 1008.14 1008.11 1007.98 1007.84 1007.67 1007.58 1007.59 1007.62 1007.76 1007.86 1008.30 1008.78 1009.08 1009.44 1009.77 1010.09 1010.12 1010.24 1010.32
Wind_Speed
3 3 3 5 4 4 4 5 5 5 5 6 6 6 7 7 6 6 8 8 10 10 9 9 11 11 8 8 8 8 9 9 11 7 3 1 3 3 4 3 5 4 6
3 4 4 4 4 4 4 4 5 5 4 6 6 6 6 7 7 6 8 8 8 9 9 9 10 6 9 9 7 10 9 9 8 11 2 2 3 1 4 2 3 4 5
5 4 4 5 4 5 4 5 5 5 5 6 6 5 6 7 7 6 6 8 8 8 8 8 8 6 7 7 9 8 7 6 8 6 3 2 2 2 2 2 1 2 3
5 4 5 5 5 4 4 5 5 5 5 5 5 5 6 6 6 5 5 5 6 5 6 5 6 6 7 8 8 8 8 7 5 3 2 2 2 1 1 3 3 1 1
4 4 7 5 5 4 5 5 5 5 4 4 4 5 6 4 4 4 2 4 5 6 5 5 4 6 12 12 7 8 7 6 5 2 1 1 2 1 3 1 2 1 1
5 7 6 4 4 5 5 6 4 5 5 4 5 5 6 4 11 11 7 3 4 4 5 5 5 5 8 13 15 14 11 7 6 3 2 3 2 3 2 2 1 0 3
6 6 6 5 5 6 5 5 5 5 4 5 6 5 6 5 11 11 10 3 4 5 5 5 6 4 6 5 7 9 10 14 9 6 4 2 2 1 0 2 2 1 1
6 7 6 5 6 5 5 6 5 3 6 5 6 6 5 6 11 11 11 4 4 5 5 5 4 5 6 4 5 4 3 5 8 4 4 5 4 4 1 0 2 3 1
7 7 6 6 7 6 7 7 5 4 5 5 5 6 6 6 11 11 9 4 5 5 4 4 4 5 10 12 3 5 4 3 5 9 10 10 8 6 3 1 2 1 0
8 8 7 8 8 9 9 8 5 5 7 4 6 6 6 8 11 13 9 3 5 4 5 5 6 7 11 12 4 5 4 3 4 4 4 5 6 6 10 4 1 2 1
7 8 7 7 8 9 8 6 5 6 6 5 6 6 6 8 9 14 13 5 4 4 4 4 3 10 10 9 8 2 2 4 6 3 2 3 4 5 3 4 4 2 2
9 9 8 7 7 6 8 6 6 5 6 6 5 8 6 6 10 13 14 14 11 5 6 4 5 12 12 11 7 8 8 3 2 3 2 2 1 2 3 4 4 3 2
10 9 9 8 7 6 6 7 5 4 5 7 6 7 8 4 4 12 15 14 14 7 3 8 13 13 12 9 11 12 4 1 2 2 2 2 2 2 0 3 3 3 2
10 10 9 6 7 5 6 6 6 6 6 7 7 8 7 5 5 3 4 4 9 7 7 5 7 9 10 9 4 5 2 3 3 3 3 3 1 1 1 1 0 2 3
10 10 9 7 5 7 6 7 7 8 9 8 8 7 5 8 6 9 7 3 4 6 4 1 2 2 3 3 3 4 3 2 3 3 2 2 2 2 2 1 3 2 3
10 8 7 7 6 6 6 7 14 19 20 21 22 15 7 16 18 16 15 15 15 15 5 4 5 4 5 4 4 5 2 4 4 3 3 3 3 3 2 1 1 1 1
9 9 7 7 6 6 6 5 7 6 12 15 17 18 21 20 20 19 17 17 18 15 6 6 4 5 4 3 4 3 2 2 1 2 3 3 3 2 2 2 2 3 3
9 10 6 6 6 6 5 4 4 5 5 4 5 10 14 14 12 12 13 13 4 3 0 2 5 5 2 2 1 1 1 2 0 1 1 2 2 2 1 2 2 2 2
8 6 7 5 5 6 5 4 3 3 3 4 2 4 6 8 9 10 12 2 1 1 1 1 2 2 2 2 2 2 2 2 1 1 2 1 1 1 1 1 2 3 3
7 10 6 5 4 5 5 4 4 4 4 4 3 3 3 2 2 2 2 1 1 1 2 2 2 2 2 2 2 2 2 2 1 1 0 1 0 0 0 1 1 1 1
6 6 7 4 5 4 4 4 4 4 4 4 3 4 11 3 2 2 2 2 2 2 2 2 2 2 3 3 2 2 2 2 2 2 1 1 2 2 2 1 1 1 1
4 4 4 4 4 5 4 4 4 4 4 4 4 5 14 3 4 4 3 3 3 3 3 3 3 3 2 2 2 2 2 2 2 2 2 2 2 2 2 1 2 1 1
3 4 4 3 3 5 5 4 4 4 4 4 4 4 4 4 4 4 4 4 3 3 3 2 2 3 2 3 2 3 3 3 3 3 3 2 1 1 1 1 1 0 1
3 3 3 3 3 3 3 4 4 4 4 4 4 5 5 4 5 6 6 5 5 5 3 3 3 5 4 4 3 3 3 3 3 4 5 4 3 2 1 1 2 3 3
3 3 3 2 3 3 4 4 5 4 5 5 5 4 5 5 6 6 6 5 6 5 6 5 4 6 7 9 7 7 6 7 4 4 3 4 5 5 3 3 3 3 2
3 3 3 3 3 3 3 5 5 5 6 6 6 6 6 7 7 7 7 7 7 7 7 5 6 9 9 7 9 9 8 9 7 8 5 4 4 4 3 5 4 3 3
Wind_Direction
282 296 293 276 289 284 276 268 267 273 277 284 283 280 280 280 276 270 270 279 279 282 282 276 276 278 270 264 259 255 253 246 255 273 249 241 275 316 284 316 334 343 323
262 250 259 288 272 283 265 276 270 275 274 275 279 279 282 284 282 274 278 280 286 290 288 283 283 289 283 276 265 262 254 251 253 260 225 250 238 352 276 300 333 326 343
241 245 267 268 278 269 272 275 283 281 277 278 282 287 296 290 286 284 286 304 295 289 287 290 298 305 300 296 281 273 263 253 251 245 224 216 220 226 299 298 293 326 348
236 241 249 254 253 258 275 274 270 265 266 288 286 284 277 282 293 298 308 310 299 292 295 294 304 306 302 308 308 284 280 282 267 247 244 16 248 118 308 295 300 344 332
229 242 248 248 250 264 259 258 264 261 268 268 286 295 296 299 283 287 299 306 311 312 305 300 303 317 327 323 307 311 315 286 284 254 211 251 247 203 226 228 262 37 288
229 242 252 249 245 247 251 257 264 273 274 272 272 271 286 284 302 317 323 269 288 300 310 308 314 302 323 330 327 330 338 329 296 280 216 218 225 218 187 200 164 346 285
230 245 248 241 245 242 239 243 248 252 249 265 271 265 272 272 299 309 318 244 262 274 283 300 315 311 311 295 311 337 346 0 359 327 317 302 312 345 351 175 184 165 284
239 248 245 238 242 243 242 243 247 233 247 250 262 259 260 273 290 294 307 296 275 273 273 284 287 305 307 326 319 299 315 349 0 5 348 332 327 341 302 220 136 121 127
250 245 239 231 241 237 240 242 243 238 244 243 248 258 256 264 280 286 295 293 294 291 283 288 297 308 328 351 334 326 330 6 1 13 20 26 29 46 94 121 98 88 354
266 256 237 231 232 238 239 241 237 231 252 240 259 249 256 270 274 277 277 261 281 284 295 289 290 304 322 337 1 338 338 340 346 353 340 349 10 11 27 30 114 51 75
279 272 260 236 231 235 239 229 235 244 249 253 265 266 255 251 266 269 263 251 244 267 274 287 271 302 307 314 325 301 288 325 331 340 323 333 343 354 8 21 33 52 34
312 300 281 258 248 239 224 235 232 232 245 261 271 279 261 249 251 264 260 257 258 242 255 254 272 294 298 305 309 295 300 306 352 346 355 330 347 327 326 352 5 16 3
316 302 290 280 267 243 230 242 236 217 235 254 254 266 275 251 235 264 261 261 263 264 241 261 273 285 298 304 292 291 290 252 306 333 307 272 217 186 190 341 333 345 320
313 312 302 282 279 251 253 246 238 234 233 243 244 253 262 268 262 226 238 256 269 270 273 276 269 272 282 287 294 283 236 214 206 214 233 268 295 347 314 175 95 350 38
318 317 316 304 281 279 254 248 242 244 229 242 241 237 232 265 258 258 247 217 217 233 236 266 285 275 277 288 288 271 261 216 205 203 203 229 272 313 291 190 170 151 156
321 321 314 309 306 298 280 277 259 262 261 258 265 256 244 248 266 270 272 270 267 266 251 240 250 225 239 247 259 273 259 244 231 206 206 194 200 199 226 270 267 212 225
311 311 308 305 302 302 307 293 298 291 271 285 291 287 270 267 270 273 273 269 270 272 262 274 272 283 272 241 241 228 243 242 264 224 208 215 202 215 205 212 211 191 212
308 300 300 305 314 320 313 304 318 317 312 305 306 313 325 318 307 308 305 302 323 331 1 270 289 295 290 308 321 304 308 334 341 238 249 251 250 218 253 262 244 213 224
318 323 330 317 319 321 323 319 305 300 295 301 308 338 10 1 353 339 319 321 285 282 269 270 253 260 260 265 261 265 253 256 255 265 261 247 156 127 73 16 3 12 352
324 335 339 332 338 346 349 351 348 345 343 349 356 344 304 330 322 298 299 284 281 288 306 302 297 282 273 278 295 297 298 298 284 278 88 71 313 162 158 14 31 39 346
336 338 343 338 354 352 355 359 350 355 356 352 328 309 14 29 335 342 336 348 340 333 310 285 285 295 293 285 278 273 279 297 303 299 312 359 40 44 30 69 63 55 56
333 329 341 344 341 358 354 355 357 358 353 352 331 337 1 4 352 339 333 344 341 342 351 350 341 353 356 5 11 25 23 13 11 37 51 40 34 21 22 23 8 23 45
345 347 351 344 357 348 356 351 352 348 338 334 329 332 333 325 319 306 295 288 284 279 274 277 270 285 283 268 223 192 208 243 231 204 202 189 181 189 140 160 177 27 80
357 357 352 334 348 343 332 327 318 320 317 311 311 307 301 297 296 292 287 287 288 280 266 257 246 247 258 263 255 246 238 242 211 208 188 171 199 218 171 191 206 207 208
347 341 345 326 324 311 317 309 304 299 296 289 293 285 285 285 283 280 275 269 269 270 271 254 243 249 255 259 259 252 244 256 235 203 177 172 200 205 198 197 207 212 202
314 311 295 300 299 286 287 294 293 286 286 288 280 273 271 276 275 275 276 274 274 273 269 262 257 255 261 258 255 257 247 243 231 222 192 183 198 218 195 217 222 205 226